Weather History for KESF - February, 2012

Change the Weather History Date:

Friday, February 3, 2012

  Actual Average (KAEX) Record (KAEX)
Temperature  
Mean Temperature 64 °F 50 °F  
Max Temperature 66 °F 61 °F 82 °F (1974)
Min Temperature 62 °F 39 °F 6 °F (1951)
Degree Days  
Heating Degree Days 1 15  
Month to date heating degree days 47  
Since 1 July heating degree days 1338  
Growing Degree Days 14 (Base 50)    
Moisture  
Dew Point 63 °F    
Average Humidity 94    
Maximum Humidity 100    
Minimum Humidity 88    
Precipitation  
Precipitation 3.26 in 0.15 in 3.21 in (2012)
Month to date precipitation 0.47  
Year to date precipitation 5.69  
Snow  
Snow 0.00 in - T in (1937)
Month to date snowfall  
Since 1 July snowfall  
Snow Depth -    
Sea Level Pressure  
Sea Level Pressure 30.08 in    
Wind  
Wind Speed 5 mph (East)    
Max Wind Speed 10 mph    
Max Gust Speed 18 mph    
Visibility 6 miles    
Events Fog , Rain , Thunderstorm    
T = Trace of Precipitation, MM = Missing Value Source: NWS Daily Summary

Daily Weather History Graph

Daily Weather History Graph

Search for Another Location

Airport or City:

Trip Planner

Search our weather history database for the weather conditions in past years. The results will help you decide how hot, cold, wet, or windy it might be!

Date:

Astronomy

Feb. 03, 2012 Rise Set
Actual Time 7:00 AM CST 5:45 PM CST
Civil Twilight 6:35 AM CST 6:10 PM CST
Nautical Twilight 6:06 AM CST 6:39 PM CST
Astronomical Twilight 5:37 AM CST 7:08 PM CST
Moon 1:55 PM CST (2/3) 3:28 AM CST (2/3)
Length of Visible Light 11h 35m
Length of Day
10h 44m
Waxing Gibbous, 82% of the Moon is Illuminated
Feb 3
Waxing Gibbous
Feb 7
Full
Feb 14
Last Quarter
Feb 21
New
Feb 29
First Quarter

Hourly Weather History & Observations

Time (CST) Temp. Dew Point Humidity Pressure Visibility Wind Dir Wind Speed Gust Speed Precip Events Conditions
12:24 AM 64.4 °F 62.6 °F 94% 30.10 in 8.0 mi ESE 5.8 mph - 0.02 in Rain Rain
12:48 AM 64.4 °F 62.6 °F 94% 30.09 in 4.0 mi East 5.8 mph - 0.10 in Rain Rain
12:53 AM 64.9 °F 63.0 °F 93% 30.09 in 5.0 mi ESE 5.8 mph - 0.12 in Rain Rain
1:11 AM 64.4 °F 64.4 °F 100% 30.09 in 4.0 mi East 3.5 mph - 0.06 in Rain Rain
1:36 AM 64.4 °F 62.6 °F 94% 30.08 in 7.0 mi East 6.9 mph - 0.08 in Rain Light Rain
1:53 AM 64.9 °F 63.0 °F 93% 30.08 in 4.0 mi East 5.8 mph - 0.13 in Rain Heavy Rain
2:36 AM 64.4 °F 62.6 °F 94% 30.08 in 9.0 mi SE 9.2 mph - 0.10 in Rain Light Rain
2:53 AM 64.9 °F 63.0 °F 93% 30.08 in 5.0 mi ESE 8.1 mph - 0.15 in Rain Rain
3:27 AM 64.4 °F 62.6 °F 94% 30.07 in 10.0 mi ESE 8.1 mph - 0.03 in Rain Light Rain
3:44 AM 64.4 °F 62.6 °F 94% 30.07 in 9.0 mi SE 6.9 mph - 0.04 in Rain Light Rain
3:53 AM 64.9 °F 63.0 °F 93% 30.06 in 10.0 mi ESE 9.2 mph - 0.04 in Rain Light Rain
4:53 AM 64.9 °F 63.0 °F 93% 30.06 in 10.0 mi ESE 8.1 mph - 0.02 in Rain Light Rain
5:48 AM 64.4 °F 62.6 °F 94% 30.09 in 6.0 mi ESE 4.6 mph - 0.23 in Rain Heavy Rain
5:53 AM 64.0 °F 63.0 °F 96% 30.09 in 3.0 mi ESE 4.6 mph - 0.28 in Rain Heavy Rain
6:02 AM 64.4 °F 62.6 °F 94% 30.09 in 2.0 mi East 5.8 mph - 0.12 in Rain Heavy Rain
6:49 AM 64.4 °F 62.6 °F 94% 30.09 in 4.0 mi ENE 6.9 mph - 0.67 in Rain Heavy Rain
6:53 AM 64.9 °F 63.0 °F 93% 30.09 in 4.0 mi ENE 6.9 mph - 0.69 in Rain Heavy Rain
7:09 AM 64.4 °F 62.6 °F 94% 30.09 in 5.0 mi ENE 8.1 mph - 0.07 in Rain Rain
7:17 AM 64.4 °F 62.6 °F 94% 30.09 in 4.0 mi NE 8.1 mph - 0.10 in Rain Rain
7:31 AM 64.4 °F 62.6 °F 94% 30.09 in 5.0 mi ENE 8.1 mph - 0.14 in Rain Rain
7:53 AM 64.0 °F 63.0 °F 96% 30.10 in 3.0 mi East 9.2 mph - 0.20 in Rain , Thunderstorm Rain
8:03 AM 64.4 °F 62.6 °F 94% 30.11 in 2.5 mi NW 5.8 mph - 0.05 in Rain , Thunderstorm Heavy Rain
8:14 AM 64.4 °F 62.6 °F 94% 30.11 in 1.8 mi West 8.1 mph - 0.13 in Rain Heavy Rain
8:23 AM 64.4 °F 62.6 °F 94% 30.12 in 0.5 mi NNW 3.5 mph 18.4 mph 0.35 in Fog , Rain Heavy Rain
8:27 AM 64.4 °F 62.6 °F 94% 30.12 in 0.2 mi WNW 6.9 mph - 0.46 in Fog , Rain , Thunderstorm Heavy Rain
8:35 AM 64.4 °F 62.6 °F 94% 30.13 in 0.8 mi North 4.6 mph - 0.65 in Rain , Thunderstorm Heavy Rain
8:41 AM 64.4 °F 62.6 °F 94% 30.12 in 1.8 mi NNE 5.8 mph - 0.78 in Rain , Thunderstorm Heavy Rain
8:48 AM 64.4 °F 62.6 °F 94% 30.12 in 2.5 mi NE 4.6 mph - 0.89 in Rain , Thunderstorm Heavy Rain
8:49 AM 64.4 °F 62.6 °F 94% 30.12 in 2.5 mi NE 3.5 mph - 0.89 in Rain , Thunderstorm Heavy Rain
8:53 AM 64.0 °F 63.0 °F 96% 30.12 in 2.5 mi Variable 5.8 mph - 0.92 in Rain , Thunderstorm Heavy Rain
9:14 AM 64.4 °F 62.6 °F 94% 30.12 in 1.5 mi North 4.6 mph - 0.14 in Rain , Thunderstorm Heavy Rain
9:45 AM 62.6 °F 62.6 °F 100% 30.12 in 2.5 mi Calm Calm - 0.42 in Rain , Thunderstorm Heavy Rain
9:53 AM 64.0 °F 62.1 °F 93% 30.11 in 2.5 mi East 3.5 mph - 0.46 in Rain , Thunderstorm Thunderstorms and Rain
10:09 AM 64.4 °F 62.6 °F 94% 30.13 in 6.0 mi Calm Calm - 0.05 in Rain , Thunderstorm Rain
10:24 AM 62.6 °F 62.6 °F 100% 30.12 in 1.8 mi NE 4.6 mph - 0.15 in Rain , Thunderstorm Heavy Rain
10:53 AM 63.0 °F 63.0 °F 100% 30.12 in 3.0 mi Calm Calm - 0.41 in Rain , Thunderstorm Rain
11:01 AM 62.6 °F 62.6 °F 100% 30.12 in 2.0 mi NW 3.5 mph - 0.03 in Rain Heavy Rain
11:10 AM 64.4 °F 62.6 °F 94% 30.11 in 3.0 mi Calm Calm - 0.05 in Rain Rain
11:40 AM 64.4 °F 62.6 °F 94% 30.10 in 5.0 mi Variable 3.5 mph - 0.09 in Rain Rain
11:48 AM 64.4 °F 62.6 °F 94% 30.11 in 5.0 mi Calm Calm - 0.10 in Rain , Thunderstorm Light Thunderstorms and Rain
11:49 AM 64.4 °F 62.6 °F 94% 30.11 in 6.0 mi Calm Calm - 0.10 in Rain , Thunderstorm Light Thunderstorms and Rain
11:53 AM 64.0 °F 63.0 °F 96% 30.11 in 10.0 mi Variable 3.5 mph - 0.10 in Rain , Thunderstorm Light Thunderstorms and Rain
12:02 PM 64.4 °F 62.6 °F 94% 30.10 in 10.0 mi Calm Calm - 0.01 in Rain Light Rain
12:23 PM 64.4 °F 62.6 °F 94% 30.09 in 10.0 mi Calm Calm - 0.05 in Rain Light Rain
12:44 PM 64.4 °F 62.6 °F 94% 30.07 in 10.0 mi Calm Calm - 0.05 in Thunderstorm Thunderstorm
12:53 PM 64.0 °F 63.0 °F 96% 30.07 in 7.0 mi ESE 3.5 mph - 0.06 in Rain , Thunderstorm Thunderstorms and Rain
1:05 PM 64.4 °F 62.6 °F 94% 30.07 in 5.0 mi Calm Calm - 0.02 in Rain Light Rain
1:16 PM 64.4 °F 62.6 °F 94% 30.06 in 6.0 mi ESE 10.4 mph - 0.04 in Rain Light Rain
1:44 PM 64.4 °F 62.6 °F 94% 30.08 in 10.0 mi WSW 3.5 mph - 0.05 in   Mostly Cloudy
1:53 PM 64.0 °F 63.0 °F 96% 30.07 in 10.0 mi Calm Calm - 0.05 in Rain Light Rain
2:53 PM 64.9 °F 63.0 °F 93% 30.04 in 10.0 mi East 4.6 mph - 0.01 in   Overcast
3:48 PM 66.2 °F 62.6 °F 88% 30.04 in 10.0 mi East 4.6 mph - N/A   Overcast
3:53 PM 66.0 °F 63.0 °F 90% 30.05 in 10.0 mi East 4.6 mph - N/A   Overcast
4:37 PM 66.2 °F 62.6 °F 88% 30.06 in 10.0 mi East 6.9 mph - N/A   Overcast
4:53 PM 66.0 °F 63.0 °F 90% 30.05 in 10.0 mi East 6.9 mph - N/A   Overcast
5:05 PM 66.2 °F 62.6 °F 88% 30.06 in 10.0 mi ESE 5.8 mph - N/A   Overcast
5:15 PM 66.2 °F 62.6 °F 88% 30.05 in 10.0 mi East 6.9 mph - N/A   Overcast
5:38 PM 64.4 °F 62.6 °F 94% 30.05 in 10.0 mi East 6.9 mph - N/A   Overcast
5:51 PM 64.4 °F 62.6 °F 94% 30.05 in 10.0 mi ESE 3.5 mph - N/A   Overcast
5:53 PM 64.9 °F 63.0 °F 93% 30.05 in 10.0 mi Calm Calm - N/A   Overcast
6:00 PM 64.4 °F 62.6 °F 94% 30.06 in 10.0 mi Calm Calm - N/A Thunderstorm Overcast
6:07 PM 64.4 °F 62.6 °F 94% 30.06 in 10.0 mi Calm Calm - N/A Thunderstorm Overcast
6:10 PM 64.4 °F 62.6 °F 94% 30.06 in 10.0 mi Calm Calm - N/A   Overcast
6:23 PM 64.4 °F 62.6 °F 94% 30.07 in 10.0 mi SE 3.5 mph - N/A Thunderstorm Overcast
6:38 PM 64.4 °F 62.6 °F 94% 30.07 in 10.0 mi Calm Calm - 0.01 in Rain Light Rain
6:53 PM 64.0 °F 63.0 °F 96% 30.06 in 1.8 mi Calm Calm - 0.12 in Rain Heavy Rain
6:59 PM 64.4 °F 62.6 °F 94% 30.06 in 3.0 mi Variable 3.5 mph - 0.00 in Rain Light Rain
7:18 PM 64.4 °F 62.6 °F 94% 30.06 in 10.0 mi ESE 4.6 mph - 0.00 in   Mostly Cloudy
7:53 PM 64.0 °F 62.1 °F 93% 30.06 in 3.0 mi ESE 4.6 mph - 0.00 in   Scattered Clouds
8:53 PM 64.0 °F 63.0 °F 96% 30.06 in 10.0 mi Variable 3.5 mph - N/A   Partly Cloudy
9:00 PM 64.4 °F 62.6 °F 94% 30.06 in 10.0 mi Calm Calm - N/A   Mostly Cloudy
9:10 PM 64.4 °F 62.6 °F 94% 30.06 in 10.0 mi East 5.8 mph - 0.00 in Rain Light Rain
9:29 PM 64.4 °F 62.6 °F 94% 30.07 in 10.0 mi Calm Calm - 0.00 in Rain Light Rain
9:53 PM 64.0 °F 62.1 °F 93% 30.07 in 9.0 mi Calm Calm - 0.00 in   Overcast
10:53 PM 64.0 °F 63.0 °F 96% 30.07 in 10.0 mi SE 3.5 mph - 0.01 in   Overcast
11:53 PM 64.9 °F 63.0 °F 93% 30.04 in 9.0 mi Calm Calm - 0.05 in Rain , Thunderstorm Light Rain